| time (UTC) | temp F | wind direction | speed MPH | gust MPH | rain 1hr in | rain 24hr in | rain mn in | humidity % | barometer mb |
| 20260506033005 | 63 | 212 | 2.0 | 6.0 | 0.00 | 0.00 | 0.00 | 60 | 1008.2 |
| 20260506031504 | 64 | 185 | 1.0 | 6.0 | 0.00 | 0.00 | 0.00 | 58 | 1008.1 |
| 20260506024504 | 65 | 183 | 1.0 | 6.0 | 0.00 | 0.00 | 0.00 | 57 | 1008.2 |
| 20260506021503 | 67 | 204 | 2.0 | 7.0 | 0.00 | 0.00 | 0.00 | 56 | 1008.2 |
| 20260506020003 | 67 | 207 | 2.0 | 12.0 | 0.00 | 0.00 | 0.00 | 55 | 1008.1 |
| 20260506014505 | 68 | 196 | 5.0 | 10.0 | 0.00 | 0.00 | 0.00 | 54 | 1008.1 |
| 20260506013004 | 69 | 222 | 3.0 | 10.0 | 0.00 | 0.00 | 0.00 | 53 | 1008.1 |
| 20260506011504 | 69 | 212 | 2.0 | 12.0 | 0.00 | 0.00 | 0.00 | 52 | 1007.8 |
| 20260506010004 | 70 | 195 | 2.0 | 12.0 | 0.00 | 0.00 | 0.00 | 52 | 1007.7 |
| 20260506004505 | 70 | 185 | 4.0 | 12.0 | 0.00 | 0.00 | 0.00 | 51 | 1007.5 |
| 20260506003004 | 70 | 221 | 4.0 | 12.0 | 0.00 | 0.00 | 0.00 | 49 | 1007.4 |
| 20260506001503 | 71 | 179 | 1.0 | 9.0 | 0.00 | 0.00 | 0.00 | 48 | 1007.2 |
| 20260506000004 | 71 | 194 | 4.0 | 16.0 | 0.00 | 0.00 | 0.00 | 47 | 1007.1 |
| 20260505234504 | 71 | 194 | 4.0 | 15.0 | 0.00 | 0.00 | 0.00 | 47 | 1007.1 |
| 20260505233004 | 71 | 195 | 3.0 | 18.0 | 0.00 | 0.00 | 0.00 | 47 | 1006.9 |
| 20260505231504 | 71 | 207 | 3.0 | 12.0 | 0.00 | 0.00 | 0.00 | 48 | 1006.9 |
| 20260505230003 | 72 | 218 | 3.0 | 14.0 | 0.00 | 0.00 | 0.00 | 48 | 1006.9 |
| 20260505224504 | 72 | 199 | 5.0 | 16.0 | 0.00 | 0.00 | 0.00 | 48 | 1006.8 |
| 20260505223004 | 72 | 205 | 2.0 | 12.0 | 0.00 | 0.00 | 0.00 | 48 | 1006.7 |
| 20260505221504 | 72 | 245 | 4.0 | 9.0 | 0.00 | 0.00 | 0.00 | 48 | 1006.7 |
| 20260505220003 | 72 | 269 | 4.0 | 15.0 | 0.00 | 0.00 | 0.00 | 49 | 1006.7 |
| 20260505214504 | 73 | 250 | 3.0 | 12.0 | 0.00 | 0.00 | 0.00 | 48 | 1006.6 |
| 20260505213003 | 74 | 229 | 6.0 | 14.0 | 0.00 | 0.00 | 0.00 | 45 | 1006.5 |
| 20260505211504 | 74 | 201 | 3.0 | 13.0 | 0.00 | 0.00 | 0.00 | 45 | 1006.4 |
| 20260505210004 | 74 | 236 | 7.0 | 25.0 | 0.00 | 0.00 | 0.00 | 44 | 1006.3 |
| 20260505204505 | 75 | 192 | 6.0 | 25.0 | 0.00 | 0.00 | 0.00 | 44 | 1006.1 |
| 20260505203004 | 75 | 235 | 5.0 | 20.0 | 0.00 | 0.00 | 0.00 | 44 | 1006.2 |
| 20260505201504 | 76 | 217 | 9.0 | 18.0 | 0.00 | 0.00 | 0.00 | 43 | 1006.3 |
| 20260505200004 | 77 | 211 | 10.0 | 26.0 | 0.00 | 0.00 | 0.00 | 42 | 1006.2 |
| 20260505194505 | 79 | 206 | 8.0 | 22.0 | 0.00 | 0.00 | 0.00 | 41 | 1006.4 |
| 20260505193004 | 78 | 225 | 6.0 | 16.0 | 0.00 | 0.00 | 0.00 | 41 | 1006.2 |
| 20260505191504 | 79 | 201 | 9.0 | 21.0 | 0.00 | 0.00 | 0.00 | 40 | 1006.5 |
| 20260505190004 | 78 | 230 | 7.0 | 29.0 | 0.00 | 0.00 | 0.00 | 41 | 1006.7 |
| 20260505184505 | 78 | 201 | 6.0 | 17.0 | 0.00 | 0.00 | 0.00 | 41 | 1006.9 |
| 20260505183004 | 77 | 243 | 10.0 | 21.0 | 0.00 | 0.00 | 0.00 | 42 | 1007.1 |
| 20260505181503 | 78 | 190 | 6.0 | 22.0 | 0.00 | 0.00 | 0.00 | 42 | 1007.3 |
| 20260505174505 | 77 | 214 | 7.0 | 20.0 | 0.00 | 0.00 | 0.00 | 43 | 1007.6 |
| 20260505173004 | 78 | 203 | 13.0 | 29.0 | 0.00 | 0.00 | 0.00 | 41 | 1007.6 |
| 20260505171504 | 78 | 249 | 6.0 | 24.0 | 0.00 | 0.00 | 0.00 | 43 | 1007.6 |
| 20260505170004 | 78 | 235 | 6.0 | 17.0 | 0.00 | 0.00 | 0.00 | 44 | 1007.7 |
| 20260505164504 | 79 | 211 | 6.0 | 16.0 | 0.00 | 0.00 | 0.00 | 44 | 1008.0 |
| 20260505163004 | 77 | 212 | 5.0 | 13.0 | 0.00 | 0.00 | 0.00 | 47 | 1008.1 |
| 20260505161504 | 76 | 247 | 3.0 | 17.0 | 0.00 | 0.00 | 0.00 | 48 | 1008.3 |
| 20260505153004 | 76 | 242 | 5.0 | 14.0 | 0.00 | 0.00 | 0.00 | 50 | 1009.0 |
| 20260505151504 | 74 | 191 | 3.0 | 22.0 | 0.00 | 0.00 | 0.00 | 52 | 1009.0 |
| 20260505124504 | 64 | 207 | 5.0 | 12.0 | 0.00 | 0.00 | 0.00 | 66 | 1009.6 |
| 20260505123004 | 63 | 215 | 3.0 | 12.0 | 0.00 | 0.00 | 0.00 | 66 | 1009.7 |
| 20260505121504 | 62 | 250 | 3.0 | 9.0 | 0.00 | 0.00 | 0.00 | 69 | 1009.7 |
| 20260505120004 | 60 | 214 | 3.0 | 8.0 | 0.00 | 0.00 | 0.00 | 72 | 1009.6 |
| 20260505114503 | 57 | 234 | 3.0 | 9.0 | 0.00 | 0.00 | 0.00 | 77 | 1009.7 |
| 20260505111504 | 50 | 194 | 1.0 | 3.0 | 0.00 | 0.00 | 0.00 | 89 | 1009.8 |
| 20260505100004 | 50 | 192 | 0.0 | 0.0 | 0.00 | 0.00 | 0.00 | 85 | 1009.4 |
| 20260505094504 | 50 | 192 | 0.0 | 3.0 | 0.00 | 0.00 | 0.00 | 83 | 1009.3 |
| 20260505093004 | 50 | 189 | 1.0 | 3.0 | 0.00 | 0.00 | 0.00 | 83 | 1009.2 |
| 20260505091504 | 50 | 197 | 1.0 | 3.0 | 0.00 | 0.00 | 0.00 | 83 | 1009.2 |
| 20260505090004 | 50 | 188 | 0.0 | 3.0 | 0.00 | 0.00 | 0.00 | 82 | 1009.2 |
| 20260505084504 | 50 | 188 | 1.0 | 3.0 | 0.00 | 0.00 | 0.00 | 81 | 1009.3 |
| 20260505083004 | 50 | 192 | 0.0 | 3.0 | 0.00 | 0.00 | 0.00 | 79 | 1009.4 |
| 20260505081504 | 51 | 193 | 0.0 | 2.0 | 0.00 | 0.00 | 0.00 | 78 | 1009.4 |
| 20260505080004 | 51 | 193 | 1.0 | 3.0 | 0.00 | 0.00 | 0.00 | 77 | 1009.5 |
| 20260505074504 | 52 | 184 | 1.0 | 3.0 | 0.00 | 0.00 | 0.00 | 76 | 1009.1 |
| 20260505071504 | 54 | 229 | 1.0 | 2.0 | 0.00 | 0.00 | 0.00 | 72 | 1009.2 |
| 20260505064504 | 55 | 206 | 1.0 | 5.0 | 0.00 | 0.00 | 0.00 | 70 | 1009.4 |
| 20260505063004 | 55 | 192 | 1.0 | 5.0 | 0.00 | 0.00 | 0.00 | 70 | 1009.5 |
| 20260505061503 | 54 | 219 | 1.0 | 5.0 | 0.00 | 0.00 | 0.00 | 69 | 1009.5 |
| 20260505060004 | 54 | 203 | 1.0 | 7.0 | 0.00 | 0.00 | 0.00 | 69 | 1009.6 |
| 20260505054504 | 55 | 222 | 2.0 | 7.0 | 0.00 | 0.00 | 0.00 | 68 | 1009.6 |
| 20260505053004 | 55 | 198 | 3.0 | 5.0 | 0.00 | 0.00 | 0.00 | 67 | 1009.7 |
| 20260505051503 | 55 | 202 | 2.0 | 13.0 | 0.00 | 0.00 | 0.00 | 66 | 1009.5 |
| 20260505041504 | 57 | 225 | 3.0 | 10.0 | 0.00 | 0.00 | 0.00 | 63 | 1009.4 |